Location: STAR School
(35.3054°N, 111.2976°W)
Time: 04:52:41
(UTC-07:00)

STRAND 1 - Visible Passes

Search period start: 24 April 2019 00:00
Search period end: 04 May 2019 00:00
Orbit: 767 x 782 km, 98.5° (Epoch: 23 April)

Date Brightness Start Highest point End Pass type
(mag) Time Alt. Az. Time Alt. Az. Time Alt. Az.
24 Apr ? 20:33:04 10° N 20:37:51 43° WNW 20:42:38 10° SW visible
25 Apr ? 19:58:52 10° NNE 20:03:59 87° ESE 20:09:06 10° SSW visible
26 Apr ? 19:25:13 10° NNE 19:29:58 38° E 19:34:42 10° SSE visible
26 Apr ? 21:05:03 10° NNW 21:08:51 22° WNW 21:12:39 10° WSW visible
27 Apr ? 20:30:17 10° N 20:35:08 45° WNW 20:39:58 10° SW visible
28 Apr ? 19:56:08 10° NNE 20:01:15 81° ESE 20:06:21 10° S visible
28 Apr ? 21:38:42 10° NW 21:39:41 11° WNW 21:40:39 10° WNW visible
29 Apr ? 21:02:12 10° NNW 21:06:08 23° WNW 21:10:03 10° WSW visible
30 Apr ? 20:27:30 10° N 20:32:24 48° WNW 20:37:17 10° SW visible
01 May ? 19:53:24 10° NNE 19:58:30 77° ESE 20:03:36 10° S visible
01 May ? 21:35:27 10° NW 21:36:59 11° WNW 21:38:31 10° W visible
02 May ? 20:59:22 10° NNW 21:03:25 24° WNW 21:07:28 10° WSW visible
03 May ? 20:24:43 10° N 20:29:40 52° WNW 20:34:36 10° SSW visible
